ABY496 OMSJ-VOBL

Flight info

Callsign ABY496
Flight time 3h 27m
Altitude 35000
Route ANVIX L223 TARDI N629 GIDAN P570 TOLDA N318 REXOD N563 GUNIM GUNIM7N
Aircraft A321/M-SDE3FGHIRWY/LB1

Departure

Time 2026-04-07 18:54
Airport Sharjah International Airport (OMSJ)

Arrival

Time 2026-04-07 22:21
Airport Kempegowda International Airport Bengaluru (VOBL)
Time Latitude Longitude Altitude Speed Heading
2026-04-07 18:32 25.32509 55.51735 126 ft 0 kts 123°
2026-04-07 18:42 25.32516 55.51723 126 ft 2 kts 123°
2026-04-07 18:43 25.32522 55.51715 126 ft 2 kts 119°
2026-04-07 18:43 25.32525 55.51699 126 ft 2 kts 84°
2026-04-07 18:43 25.32521 55.51683 126 ft 2 kts 57°
2026-04-07 18:43 25.32513 55.51673 126 ft 0 kts 36°
2026-04-07 18:44 25.32507 55.51669 126 ft 1 kts 32°
2026-04-07 18:44 25.32506 55.51669 126 ft 0 kts 32°
2026-04-07 18:45 25.32510 55.51671 126 ft 1 kts 32°
2026-04-07 18:45 25.32524 55.51681 126 ft 3 kts 33°
2026-04-07 18:46 25.32551 55.51700 126 ft 5 kts 33°
2026-04-07 18:46 25.32588 55.51727 126 ft 7 kts 33°
2026-04-07 18:46 25.32622 55.51770 126 ft 8 kts 91°
2026-04-07 18:46 25.32596 55.51836 126 ft 10 kts 122°
2026-04-07 18:47 25.32556 55.51905 126 ft 11 kts 122°
2026-04-07 18:47 25.32515 55.51976 126 ft 11 kts 123°
2026-04-07 18:47 25.32474 55.52047 126 ft 10 kts 122°
2026-04-07 18:47 25.32433 55.52117 126 ft 10 kts 122°
2026-04-07 18:48 25.32393 55.52186 126 ft 10 kts 123°
2026-04-07 18:48 25.32354 55.52251 126 ft 10 kts 125°
2026-04-07 18:48 25.32317 55.52318 126 ft 10 kts 121°
2026-04-07 18:48 25.32279 55.52385 126 ft 10 kts 123°
2026-04-07 18:49 25.32237 55.52458 126 ft 11 kts 122°
2026-04-07 18:49 25.32191 55.52536 126 ft 12 kts 123°
2026-04-07 18:49 25.32143 55.52620 126 ft 13 kts 122°
2026-04-07 18:49 25.32093 55.52708 126 ft 13 kts 122°
2026-04-07 18:50 25.32041 55.52798 126 ft 14 kts 123°
2026-04-07 18:50 25.31988 55.52890 126 ft 14 kts 122°
2026-04-07 18:50 25.31934 55.52984 126 ft 14 kts 122°
2026-04-07 18:50 25.31879 55.53079 126 ft 14 kts 122°
2026-04-07 18:51 25.31825 55.53173 126 ft 13 kts 123°
2026-04-07 18:51 25.31794 55.53238 126 ft 8 kts 107°
2026-04-07 18:51 25.31784 55.53297 126 ft 6 kts 98°
2026-04-07 18:51 25.31789 55.53347 126 ft 7 kts 58°
2026-04-07 18:52 25.31832 55.53383 126 ft 8 kts 31°
2026-04-07 18:52 25.31885 55.53418 126 ft 9 kts 33°
2026-04-07 18:52 25.31944 55.53460 126 ft 10 kts 32°
2026-04-07 18:52 25.32007 55.53502 126 ft 10 kts 31°
2026-04-07 18:53 25.32078 55.53517 126 ft 10 kts 340°
2026-04-07 18:53 25.32125 55.53456 126 ft 10 kts 303°
2026-04-07 18:53 25.32208 55.53304 126 ft 51 kts 304°
2026-04-07 18:53 25.32528 55.52753 126 ft 116 kts 302°
2026-04-07 18:54 25.33065 55.51821 134 ft 169 kts 299°
2026-04-07 18:54 25.33742 55.50711 723 ft 171 kts 299°
2026-04-07 18:54 25.34386 55.49656 1556 ft 166 kts 299°
2026-04-07 18:54 25.34994 55.48623 2234 ft 159 kts 300°
2026-04-07 18:55 25.35589 55.47583 2549 ft 168 kts 298°
2026-04-07 18:55 25.36222 55.46423 2819 ft 181 kts 299°
2026-04-07 18:55 25.36911 55.45174 3046 ft 199 kts 300°
2026-04-07 18:55 25.37677 55.43800 3355 ft 215 kts 301°
2026-04-07 18:56 25.38499 55.42359 3733 ft 227 kts 304°
2026-04-07 18:56 25.39698 55.41205 4260 ft 238 kts 334°
2026-04-07 18:56 25.41344 55.40962 4897 ft 249 kts
2026-04-07 18:56 25.42956 55.41706 5519 ft 260 kts 27°
2026-04-07 18:57 25.44468 55.42807 6118 ft 261 kts 26°
2026-04-07 18:57 25.46010 55.43887 6700 ft 263 kts 25°
2026-04-07 18:57 25.47553 55.44957 7283 ft 264 kts 25°
2026-04-07 18:57 25.49109 55.46037 7842 ft 266 kts 24°
2026-04-07 18:58 25.50690 55.47137 8421 ft 268 kts 24°
2026-04-07 18:58 25.52136 55.48518 8922 ft 287 kts 49°
2026-04-07 18:58 25.52823 55.50650 9401 ft 309 kts 81°
2026-04-07 18:58 25.52471 55.53070 9671 ft 331 kts 112°
2026-04-07 18:59 25.51284 55.55250 10032 ft 339 kts 127°
2026-04-07 18:59 25.49820 55.57351 10519 ft 343 kts 129°
2026-04-07 18:59 25.48392 55.59463 11048 ft 345 kts 127°
2026-04-07 18:59 25.47035 55.61644 11563 ft 347 kts 124°
2026-04-07 19:00 25.45720 55.63889 12066 ft 349 kts 123°
2026-04-07 19:00 25.44409 55.66187 12558 ft 351 kts 123°
2026-04-07 19:00 25.43083 55.68451 13020 ft 353 kts 128°
2026-04-07 19:00 25.41559 55.70564 13480 ft 354 kts 135°
2026-04-07 19:01 25.39777 55.72452 13929 ft 350 kts 152°
2026-04-07 19:01 25.37593 55.73420 14327 ft 332 kts 182°
2026-04-07 19:01 25.33612 55.72010 15205 ft 293 kts 229°
2026-04-07 19:02 25.32072 55.70536 15658 ft 295 kts 228°
2026-04-07 19:02 25.30432 55.69133 16091 ft 299 kts 226°
2026-04-07 19:02 25.28746 55.67744 16563 ft 301 kts 225°
2026-04-07 19:02 25.26895 55.66616 16979 ft 318 kts 208°
2026-04-07 19:03 25.24635 55.66222 17312 ft 342 kts 188°
2026-04-07 19:03 25.22191 55.66517 17504 ft 360 kts 180°
2026-04-07 19:03 25.19683 55.66954 17681 ft 371 kts 180°
2026-04-07 19:03 25.17073 55.67416 17856 ft 380 kts 180°
2026-04-07 19:04 25.14436 55.67768 18021 ft 386 kts 183°
2026-04-07 19:04 25.11726 55.68059 18272 ft 392 kts 184°
2026-04-07 19:04 25.09020 55.68337 18638 ft 393 kts 184°
2026-04-07 19:04 25.06283 55.68619 18978 ft 396 kts 184°
2026-04-07 19:05 25.03517 55.68905 19368 ft 397 kts 184°
2026-04-07 19:05 25.00768 55.69187 19695 ft 399 kts 184°
2026-04-07 19:05 24.97971 55.69476 20021 ft 402 kts 183°
2026-04-07 19:05 24.95194 55.70170 20278 ft 423 kts 165°
2026-04-07 19:06 24.92681 55.71985 20560 ft 445 kts 141°
2026-04-07 19:06 24.90723 55.74656 20922 ft 452 kts 130°
2026-04-07 19:06 24.88916 55.77545 21236 ft 455 kts 129°
2026-04-07 19:06 24.87123 55.80413 21481 ft 458 kts 129°
2026-04-07 19:07 24.85275 55.83282 21815 ft 458 kts 131°
2026-04-07 19:07 24.83402 55.86118 22115 ft 459 kts 131°
2026-04-07 19:07 24.81486 55.88947 22344 ft 462 kts 132°
2026-04-07 19:07 24.79527 55.91768 22648 ft 462 kts 134°
2026-04-07 19:08 24.77448 55.94427 22938 ft 460 kts 139°
2026-04-07 19:08 24.75180 55.96948 23214 ft 459 kts 143°
2026-04-07 19:08 24.72845 55.99345 23531 ft 459 kts 143°
2026-04-07 19:08 24.70487 56.01733 23827 ft 460 kts 143°
2026-04-07 19:09 24.68129 56.04135 24148 ft 462 kts 143°
2026-04-07 19:09 24.65803 56.06521 24460 ft 463 kts 143°
2026-04-07 19:09 24.63430 56.08964 24768 ft 464 kts 142°
2026-04-07 19:09 24.61062 56.11403 25043 ft 466 kts 143°
2026-04-07 19:10 24.58716 56.13821 25324 ft 468 kts 142°
2026-04-07 19:10 24.56391 56.16408 25605 ft 472 kts 138°
2026-04-07 19:10 24.54229 56.19091 25892 ft 475 kts 136°
2026-04-07 19:10 24.52068 56.21852 26199 ft 476 kts 135°
2026-04-07 19:11 24.49899 56.24633 26486 ft 477 kts 135°
2026-04-07 19:11 24.47751 56.27386 26729 ft 479 kts 135°
2026-04-07 19:11 24.45576 56.30161 27008 ft 480 kts 135°
2026-04-07 19:11 24.43382 56.32954 27264 ft 481 kts 135°
2026-04-07 19:12 24.41202 56.35729 27504 ft 483 kts 136°
2026-04-07 19:12 24.39011 56.38513 27776 ft 484 kts 135°
2026-04-07 19:12 24.36798 56.41322 28036 ft 485 kts 135°
2026-04-07 19:12 24.34584 56.44132 28284 ft 487 kts 135°
2026-04-07 19:13 24.32379 56.46930 28522 ft 488 kts 135°
2026-04-07 19:13 24.30154 56.49797 28762 ft 491 kts 133°
2026-04-07 19:13 24.28085 56.52753 28953 ft 495 kts 130°
2026-04-07 19:13 24.26040 56.55822 29207 ft 496 kts 129°
2026-04-07 19:14 24.24026 56.58877 29439 ft 498 kts 129°
2026-04-07 19:14 24.21977 56.61985 29643 ft 501 kts 129°
2026-04-07 19:14 24.19952 56.65048 29870 ft 502 kts 130°
2026-04-07 19:14 24.17889 56.68158 30123 ft 502 kts 130°
2026-04-07 19:15 24.15815 56.71280 30323 ft 504 kts 130°
2026-04-07 19:15 24.13734 56.74407 30576 ft 504 kts 130°
2026-04-07 19:15 24.11673 56.77502 30858 ft 503 kts 130°
2026-04-07 19:15 24.09624 56.80574 31126 ft 503 kts 130°
2026-04-07 19:16 24.07551 56.83683 31425 ft 502 kts 129°
2026-04-07 19:16 24.05503 56.86755 31710 ft 501 kts 130°
2026-04-07 19:16 24.03439 56.89846 31957 ft 501 kts 130°
2026-04-07 19:16 24.01389 56.92913 32205 ft 501 kts 130°
2026-04-07 19:17 23.99321 56.96001 32461 ft 501 kts 130°
2026-04-07 19:17 23.97245 56.99100 32716 ft 500 kts 130°
2026-04-07 19:17 23.95200 57.02151 32980 ft 500 kts 130°
2026-04-07 19:17 23.93147 57.05213 33222 ft 499 kts 130°
2026-04-07 19:18 23.91110 57.08248 33427 ft 500 kts 130°
2026-04-07 19:18 23.89034 57.11340 33628 ft 501 kts 130°
2026-04-07 19:18 23.86970 57.14413 33821 ft 501 kts 130°
2026-04-07 19:18 23.84899 57.17497 34032 ft 501 kts 130°
2026-04-07 19:19 23.82842 57.20558 34262 ft 500 kts 130°
2026-04-07 19:19 23.80783 57.23621 34468 ft 500 kts 130°
2026-04-07 19:19 23.78743 57.26650 34650 ft 500 kts 130°
2026-04-07 19:19 23.76677 57.29718 34813 ft 501 kts 130°
2026-04-07 19:20 23.74617 57.32775 34892 ft 502 kts 130°
2026-04-07 19:20 23.70418 57.38833 34910 ft 500 kts 132°
2026-04-07 19:21 23.66089 57.44784 34907 ft 500 kts 132°
2026-04-07 19:21 23.61743 57.50743 34907 ft 500 kts 132°
2026-04-07 19:22 23.57436 57.56656 34916 ft 499 kts 132°
2026-04-07 19:22 23.53126 57.62568 34918 ft 499 kts 132°
2026-04-07 19:23 23.48805 57.68485 34911 ft 499 kts 132°
2026-04-07 19:23 23.44467 57.74416 34928 ft 499 kts 132°
2026-04-07 19:24 23.40163 57.80291 34937 ft 499 kts 132°
2026-04-07 19:24 23.35822 57.86206 34950 ft 499 kts 132°
2026-04-07 19:25 23.31494 57.92103 34959 ft 499 kts 132°
2026-04-07 19:25 23.27160 57.98003 34961 ft 498 kts 132°
2026-04-07 19:26 23.22987 58.03998 34969 ft 500 kts 128°
2026-04-07 19:26 23.19057 58.10228 34983 ft 500 kts 127°
2026-04-07 19:27 23.15119 58.16491 34993 ft 500 kts 127°
2026-04-07 19:27 23.11189 58.22707 35001 ft 499 kts 127°
2026-04-07 19:28 23.07278 58.28877 34997 ft 498 kts 128°
2026-04-07 19:28 23.02965 58.34683 35002 ft 493 kts 137°
2026-04-07 19:29 22.97931 58.39727 35005 ft 487 kts 146°
2026-04-07 19:29 22.92387 58.43856 34999 ft 482 kts 153°
2026-04-07 19:30 22.86642 58.47616 34991 ft 482 kts 153°
2026-04-07 19:30 22.80912 58.51383 34974 ft 482 kts 153°
2026-04-07 19:31 22.75182 58.55181 34955 ft 481 kts 152°
2026-04-07 19:31 22.69793 58.59608 34947 ft 489 kts 141°
2026-04-07 19:32 22.65248 58.65090 34944 ft 493 kts 129°
2026-04-07 19:32 22.61716 58.71452 34941 ft 496 kts 119°
2026-04-07 19:33 22.58642 58.78117 34933 ft 496 kts 118°
2026-04-07 19:33 22.55564 58.84787 34942 ft 495 kts 118°
2026-04-07 19:34 22.52473 58.91408 34940 ft 494 kts 119°
2026-04-07 19:34 22.49352 58.98056 34928 ft 494 kts 119°
2026-04-07 19:35 22.46258 59.04625 34933 ft 494 kts 119°
2026-04-07 19:35 22.43132 59.11256 34966 ft 494 kts 119°
2026-04-07 19:36 22.40016 59.17857 34999 ft 494 kts 119°
2026-04-07 19:36 22.36896 59.24461 35014 ft 493 kts 119°
2026-04-07 19:37 22.33773 59.31056 34980 ft 493 kts 119°
2026-04-07 19:37 22.30652 59.37640 34931 ft 494 kts 118°
2026-04-07 19:38 22.27524 59.44231 34902 ft 493 kts 118°
2026-04-07 19:38 22.24414 59.50777 34883 ft 493 kts 118°
2026-04-07 19:39 22.21292 59.57338 34875 ft 493 kts 118°
2026-04-07 19:39 22.18155 59.63923 34866 ft 492 kts 118°
2026-04-07 19:40 22.15029 59.70477 34860 ft 493 kts 119°
2026-04-07 19:40 22.11891 59.77047 34859 ft 492 kts 119°
2026-04-07 19:41 22.08760 59.83593 34854 ft 492 kts 119°
2026-04-07 19:41 22.05622 59.90149 34855 ft 493 kts 119°
2026-04-07 19:42 22.02479 59.96703 34855 ft 493 kts 119°
2026-04-07 19:42 21.99342 60.03236 34852 ft 493 kts 119°
2026-04-07 19:43 21.96177 60.09821 34851 ft 493 kts 119°
2026-04-07 19:43 21.93038 60.16343 34849 ft 492 kts 119°
2026-04-07 19:44 21.89885 60.22884 34850 ft 493 kts 119°
2026-04-07 19:44 21.86739 60.29404 34850 ft 493 kts 119°
2026-04-07 19:45 21.83582 60.35941 34849 ft 491 kts 119°
2026-04-07 19:45 21.80426 60.42466 34849 ft 491 kts 119°
2026-04-07 19:46 21.77283 60.48956 34850 ft 491 kts 119°
2026-04-07 19:46 21.74132 60.55453 34850 ft 491 kts 119°
2026-04-07 19:47 21.70967 60.61972 34852 ft 491 kts 119°
2026-04-07 19:47 21.67817 60.68451 34852 ft 491 kts 119°
2026-04-07 19:48 21.64660 60.74939 34856 ft 490 kts 119°
2026-04-07 19:48 21.61492 60.81439 34858 ft 491 kts 119°
2026-04-07 19:49 21.58329 60.87920 34863 ft 491 kts 119°
2026-04-07 19:49 21.55170 60.94387 34868 ft 491 kts 119°
2026-04-07 19:50 21.51992 61.00887 34869 ft 490 kts 119°
2026-04-07 19:50 21.48840 61.07322 34868 ft 489 kts 119°
2026-04-07 19:51 21.45655 61.13817 34865 ft 489 kts 119°
2026-04-07 19:51 21.42492 61.20257 34862 ft 489 kts 119°
2026-04-07 19:52 21.39336 61.26678 34860 ft 489 kts 119°
2026-04-07 19:52 21.36163 61.33128 34861 ft 489 kts 119°
2026-04-07 19:53 21.32981 61.39586 34859 ft 489 kts 119°
2026-04-07 19:53 21.29798 61.46038 34860 ft 489 kts 119°
2026-04-07 19:54 21.26638 61.52438 34860 ft 489 kts 119°
2026-04-07 19:54 21.23462 61.58859 34859 ft 489 kts 119°
2026-04-07 19:55 21.20261 61.65331 34856 ft 489 kts 120°
2026-04-07 19:55 21.17143 61.71738 34852 ft 488 kts 119°
2026-04-07 19:56 21.14008 61.78189 34851 ft 488 kts 119°
2026-04-07 19:56 21.10869 61.84637 34852 ft 487 kts 119°
2026-04-07 19:57 21.07751 61.91029 34850 ft 487 kts 119°
2026-04-07 19:57 21.04603 61.97474 34853 ft 487 kts 119°
2026-04-07 19:58 21.01469 62.03885 34851 ft 486 kts 119°
2026-04-07 19:58 20.98328 62.10297 34851 ft 486 kts 119°
2026-04-07 19:59 20.95196 62.16684 34852 ft 487 kts 119°
2026-04-07 19:59 20.92047 62.23099 34852 ft 487 kts 119°
2026-04-07 20:00 20.88919 62.29465 34852 ft 487 kts 119°
2026-04-07 20:00 20.84194 62.39067 34853 ft 487 kts 119°
2026-04-07 20:01 20.81052 62.45443 34853 ft 488 kts 119°
2026-04-07 20:01 20.77875 62.51883 34855 ft 487 kts 119°
2026-04-07 20:02 20.74737 62.58234 34859 ft 486 kts 119°
2026-04-07 20:02 20.71569 62.64637 34853 ft 486 kts 119°
2026-04-07 20:03 20.68413 62.71009 34854 ft 486 kts 120°
2026-04-07 20:03 20.65270 62.77350 34855 ft 485 kts 120°
2026-04-07 20:04 20.62099 62.83740 34855 ft 486 kts 120°
2026-04-07 20:04 20.58955 62.90068 34854 ft 485 kts 120°
2026-04-07 20:05 20.55789 62.96432 34857 ft 485 kts 120°
2026-04-07 20:05 20.52628 63.02779 34860 ft 485 kts 120°
2026-04-07 20:06 20.49482 63.09087 34867 ft 485 kts 120°
2026-04-07 20:06 20.46300 63.15461 34867 ft 485 kts 120°
2026-04-07 20:07 20.43139 63.21787 34868 ft 485 kts 120°
2026-04-07 20:07 20.39976 63.28109 34870 ft 485 kts 120°
2026-04-07 20:08 20.36803 63.34446 34869 ft 485 kts 120°
2026-04-07 20:08 20.33618 63.40797 34869 ft 484 kts 120°
2026-04-07 20:09 20.30457 63.47095 34868 ft 484 kts 120°
2026-04-07 20:09 20.27277 63.53421 34871 ft 484 kts 120°
2026-04-07 20:10 20.24104 63.59725 34869 ft 484 kts 120°
2026-04-07 20:10 20.20930 63.66028 34869 ft 484 kts 120°
2026-04-07 20:11 20.17744 63.72345 34869 ft 484 kts 120°
2026-04-07 20:11 20.14575 63.78624 34871 ft 483 kts 120°
2026-04-07 20:12 20.11403 63.84902 34869 ft 482 kts 120°
2026-04-07 20:12 20.08221 63.91189 34870 ft 482 kts 120°
2026-04-07 20:13 20.05045 63.97460 34869 ft 482 kts 120°
2026-04-07 20:13 20.01874 64.03711 34870 ft 481 kts 120°
2026-04-07 20:14 19.98706 64.09953 34870 ft 481 kts 120°
2026-04-07 20:14 19.95522 64.16221 34870 ft 480 kts 120°
2026-04-07 20:15 19.92344 64.22469 34870 ft 481 kts 120°
2026-04-07 20:15 19.89174 64.28693 34872 ft 481 kts 120°
2026-04-07 20:16 19.85999 64.34921 34870 ft 481 kts 120°
2026-04-07 20:16 19.82795 64.41196 34872 ft 480 kts 120°
2026-04-07 20:17 19.79621 64.47409 34874 ft 479 kts 120°
2026-04-07 20:17 19.76451 64.53608 34873 ft 479 kts 120°
2026-04-07 20:18 19.73280 64.59800 34876 ft 478 kts 120°
2026-04-07 20:18 19.70092 64.66019 34872 ft 479 kts 121°
2026-04-07 20:19 19.66914 64.72214 34877 ft 477 kts 120°
2026-04-07 20:19 19.63759 64.78355 34874 ft 477 kts 120°
2026-04-07 20:20 19.60576 64.84544 34878 ft 477 kts 120°
2026-04-07 20:20 19.57405 64.90705 34878 ft 476 kts 121°
2026-04-07 20:21 19.54223 64.96880 34877 ft 476 kts 121°
2026-04-07 20:21 19.51078 65.03025 34877 ft 476 kts 120°
2026-04-07 20:22 19.47987 65.09196 34879 ft 477 kts 120°
2026-04-07 20:22 19.44866 65.15427 34883 ft 476 kts 120°
2026-04-07 20:23 19.41762 65.21605 34881 ft 476 kts 120°
2026-04-07 20:23 19.38668 65.27754 34882 ft 476 kts 120°
2026-04-07 20:24 19.35555 65.33932 34883 ft 476 kts 120°
2026-04-07 20:24 19.32448 65.40091 34884 ft 475 kts 120°
2026-04-07 20:25 19.29334 65.46260 34883 ft 475 kts 120°
2026-04-07 20:25 19.26214 65.52433 34885 ft 474 kts 120°
2026-04-07 20:26 19.23107 65.58570 34886 ft 474 kts 120°
2026-04-07 20:26 19.20002 65.64702 34887 ft 474 kts 120°
2026-04-07 20:27 19.16888 65.70843 34886 ft 474 kts 120°
2026-04-07 20:27 19.13788 65.76949 34889 ft 474 kts 120°
2026-04-07 20:28 19.10657 65.83110 34888 ft 474 kts 120°
2026-04-07 20:28 19.07551 65.89220 34888 ft 474 kts 120°
2026-04-07 20:29 19.04424 65.95361 34889 ft 474 kts 120°
2026-04-07 20:29 19.01314 66.01462 34890 ft 473 kts 120°
2026-04-07 20:30 18.98192 66.07578 34891 ft 473 kts 120°
2026-04-07 20:30 18.95062 66.13708 34883 ft 473 kts 120°
2026-04-07 20:31 18.91951 66.19795 34875 ft 472 kts 120°
2026-04-07 20:31 18.88821 66.25911 34873 ft 473 kts 120°
2026-04-07 20:32 18.85701 66.32000 34876 ft 473 kts 119°
2026-04-07 20:32 18.82574 66.38100 34876 ft 473 kts 119°
2026-04-07 20:33 18.79457 66.44173 34875 ft 473 kts 119°
2026-04-07 20:33 18.76312 66.50294 34877 ft 473 kts 120°
2026-04-07 20:34 18.73181 66.56381 34876 ft 472 kts 119°
2026-04-07 20:34 18.70049 66.62463 34877 ft 472 kts 119°
2026-04-07 20:35 18.66928 66.68519 34878 ft 473 kts 120°
2026-04-07 20:35 18.63789 66.74607 34880 ft 473 kts 120°
2026-04-07 20:36 18.60651 66.80682 34884 ft 472 kts 120°
2026-04-07 20:36 18.57512 66.86756 34887 ft 472 kts 120°
2026-04-07 20:37 18.54378 66.92813 34888 ft 472 kts 120°
2026-04-07 20:37 18.51231 66.98887 34889 ft 472 kts 120°
2026-04-07 20:38 18.48087 67.04951 34889 ft 472 kts 120°
2026-04-07 20:38 18.44957 67.10985 34894 ft 472 kts 120°
2026-04-07 20:39 18.41802 67.17058 34901 ft 472 kts 120°
2026-04-07 20:39 18.38659 67.23105 34904 ft 471 kts 120°
2026-04-07 20:40 18.35528 67.29120 34903 ft 471 kts 120°
2026-04-07 20:40 18.32378 67.35167 34903 ft 470 kts 120°
2026-04-07 20:41 18.29227 67.41207 34900 ft 471 kts 120°
2026-04-07 20:41 18.26079 67.47237 34898 ft 470 kts 119°
2026-04-07 20:42 18.22936 67.53252 34892 ft 469 kts 119°
2026-04-07 20:42 18.19810 67.59233 34892 ft 469 kts 120°
2026-04-07 20:43 18.16669 67.65235 34892 ft 469 kts 120°
2026-04-07 20:43 18.13511 67.71260 34890 ft 469 kts 120°
2026-04-07 20:44 18.10360 67.77264 34892 ft 469 kts 120°
2026-04-07 20:44 18.07232 67.83227 34892 ft 469 kts 119°
2026-04-07 20:45 18.04171 67.89263 34893 ft 468 kts 118°
2026-04-07 20:45 18.01131 67.95300 34891 ft 468 kts 118°
2026-04-07 20:46 17.98074 68.01350 34891 ft 468 kts 118°
2026-04-07 20:46 17.95016 68.07386 34892 ft 468 kts 119°
2026-04-07 20:47 17.91965 68.13398 34891 ft 468 kts 119°
2026-04-07 20:47 17.88915 68.19399 34891 ft 468 kts 119°
2026-04-07 20:48 17.85852 68.25423 34891 ft 468 kts 118°
2026-04-07 20:48 17.82774 68.31471 34891 ft 468 kts 118°
2026-04-07 20:49 17.79711 68.37484 34891 ft 468 kts 118°
2026-04-07 20:49 17.76656 68.43476 34891 ft 467 kts 119°
2026-04-07 20:50 17.73595 68.49474 34891 ft 466 kts 118°
2026-04-07 20:50 17.70549 68.55436 34891 ft 466 kts 118°
2026-04-07 20:51 17.67477 68.61442 34891 ft 466 kts 118°
2026-04-07 20:51 17.64415 68.67424 34891 ft 467 kts 119°
2026-04-07 20:52 17.61343 68.73420 34891 ft 467 kts 119°
2026-04-07 20:52 17.58273 68.79410 34891 ft 466 kts 119°
2026-04-07 20:53 17.55207 68.85382 34891 ft 466 kts 119°
2026-04-07 20:53 17.52143 68.91346 34891 ft 466 kts 119°
2026-04-07 20:54 17.49075 68.97311 34891 ft 465 kts 119°
2026-04-07 20:54 17.46025 69.03237 34892 ft 465 kts 119°
2026-04-07 20:55 17.42947 69.09211 34891 ft 464 kts 119°
2026-04-07 20:55 17.39875 69.15170 34891 ft 465 kts 119°
2026-04-07 20:56 17.36812 69.21105 34890 ft 465 kts 119°
2026-04-07 20:56 17.33751 69.27032 34887 ft 465 kts 119°
2026-04-07 20:57 17.30672 69.32988 34885 ft 465 kts 119°
2026-04-07 20:57 17.27597 69.38927 34887 ft 464 kts 119°
2026-04-07 20:58 17.24521 69.44865 34886 ft 464 kts 118°
2026-04-07 20:58 17.21443 69.50801 34884 ft 464 kts 118°
2026-04-07 20:59 17.18385 69.56702 34879 ft 463 kts 118°
2026-04-07 20:59 17.15330 69.62640 34877 ft 463 kts 118°
2026-04-07 21:00 17.10759 69.71516 34876 ft 463 kts 119°
2026-04-07 21:01 17.07709 69.77426 34875 ft 463 kts 119°
2026-04-07 21:01 17.04637 69.83372 34875 ft 463 kts 118°
2026-04-07 21:02 17.01596 69.89255 34874 ft 462 kts 118°
2026-04-07 21:02 16.98540 69.95162 34877 ft 462 kts 118°
2026-04-07 21:03 16.95473 70.01086 34885 ft 462 kts 118°
2026-04-07 21:03 16.92409 70.06998 34890 ft 462 kts 118°
2026-04-07 21:04 16.89354 70.12887 34891 ft 462 kts 118°
2026-04-07 21:04 16.86290 70.18786 34891 ft 462 kts 118°
2026-04-07 21:05 16.83226 70.24683 34891 ft 462 kts 118°
2026-04-07 21:05 16.80168 70.30562 34892 ft 462 kts 118°
2026-04-07 21:06 16.77104 70.36446 34891 ft 462 kts 118°
2026-04-07 21:06 16.74030 70.42348 34891 ft 462 kts 118°
2026-04-07 21:07 16.70959 70.48235 34891 ft 463 kts 118°
2026-04-07 21:07 16.67893 70.54108 34890 ft 462 kts 118°
2026-04-07 21:08 16.64807 70.60013 34887 ft 462 kts 118°
2026-04-07 21:08 16.61735 70.65891 34884 ft 462 kts 119°
2026-04-07 21:09 16.58660 70.71767 34882 ft 462 kts 119°
2026-04-07 21:09 16.55599 70.77610 34884 ft 462 kts 119°
2026-04-07 21:10 16.52518 70.83486 34887 ft 463 kts 119°
2026-04-07 21:10 16.49456 70.89391 34890 ft 463 kts 118°
2026-04-07 21:11 16.46415 70.95270 34891 ft 463 kts 118°
2026-04-07 21:11 16.43362 71.01163 34892 ft 462 kts 118°
2026-04-07 21:12 16.40301 71.07061 34890 ft 462 kts 118°
2026-04-07 21:12 16.37247 71.12939 34892 ft 462 kts 118°
2026-04-07 21:13 16.34203 71.18793 34893 ft 463 kts 118°
2026-04-07 21:13 16.31129 71.24698 34893 ft 463 kts 118°
2026-04-07 21:14 16.28058 71.30594 34891 ft 464 kts 118°
2026-04-07 21:14 16.24978 71.36502 34894 ft 464 kts 118°
2026-04-07 21:15 16.21913 71.42378 34893 ft 463 kts 118°
2026-04-07 21:15 16.18847 71.48250 34891 ft 463 kts 118°
2026-04-07 21:16 16.15773 71.54131 34894 ft 463 kts 118°
2026-04-07 21:16 16.12708 71.59988 34896 ft 463 kts 118°
2026-04-07 21:17 16.09624 71.65888 34893 ft 464 kts 118°
2026-04-07 21:17 16.06620 71.71797 34892 ft 464 kts 118°
2026-04-07 21:18 16.03607 71.77749 34891 ft 464 kts 118°
2026-04-07 21:18 16.00598 71.83675 34893 ft 463 kts 118°
2026-04-07 21:19 15.97592 71.89585 34894 ft 463 kts 118°
2026-04-07 21:19 15.94593 71.95474 34890 ft 463 kts 118°
2026-04-07 21:20 15.91562 72.01418 34892 ft 464 kts 118°
2026-04-07 21:20 15.88561 72.07300 34890 ft 464 kts 118°
2026-04-07 21:21 15.85538 72.13219 34889 ft 464 kts 118°
2026-04-07 21:21 15.82505 72.19154 34886 ft 465 kts 118°
2026-04-07 21:22 15.79488 72.25053 34876 ft 464 kts 118°
2026-04-07 21:22 15.76449 72.30991 34873 ft 464 kts 118°
2026-04-07 21:23 15.73425 72.36890 34867 ft 464 kts 118°
2026-04-07 21:23 15.70386 72.42816 34869 ft 464 kts 118°
2026-04-07 21:24 15.67370 72.48695 34870 ft 464 kts 118°
2026-04-07 21:24 15.64346 72.54583 34870 ft 464 kts 118°
2026-04-07 21:25 15.61301 72.60506 34870 ft 465 kts 118°
2026-04-07 21:25 15.58256 72.66424 34868 ft 465 kts 118°
2026-04-07 21:26 15.55222 72.72318 34868 ft 465 kts 118°
2026-04-07 21:26 15.52174 72.78231 34869 ft 465 kts 118°
2026-04-07 21:27 15.49121 72.84152 34867 ft 465 kts 118°
2026-04-07 21:27 15.46078 72.90047 34870 ft 465 kts 118°
2026-04-07 21:28 15.43031 72.95946 34870 ft 464 kts 118°
2026-04-07 21:28 15.39988 73.01833 34870 ft 465 kts 118°
2026-04-07 21:29 15.36945 73.07715 34867 ft 465 kts 118°
2026-04-07 21:29 15.33890 73.13612 34872 ft 465 kts 118°
2026-04-07 21:30 15.30831 73.19516 34872 ft 466 kts 118°
2026-04-07 21:30 15.27768 73.25420 34873 ft 465 kts 118°
2026-04-07 21:31 15.24706 73.31319 34869 ft 466 kts 117°
2026-04-07 21:31 15.21639 73.37223 34871 ft 466 kts 117°
2026-04-07 21:32 15.18579 73.43111 34870 ft 465 kts 117°
2026-04-07 21:32 15.15501 73.49029 34874 ft 465 kts 117°
2026-04-07 21:33 15.12447 73.54893 34871 ft 465 kts 117°
2026-04-07 21:33 15.09366 73.60802 34870 ft 465 kts 117°
2026-04-07 21:34 15.06295 73.66692 34872 ft 466 kts 118°
2026-04-07 21:34 15.03211 73.72599 34874 ft 466 kts 118°
2026-04-07 21:35 15.00153 73.78451 34880 ft 466 kts 117°
2026-04-07 21:35 14.97064 73.84352 34887 ft 466 kts 118°
2026-04-07 21:36 14.93967 73.90254 34887 ft 465 kts 118°
2026-04-07 21:36 14.90892 73.96113 34889 ft 464 kts 117°
2026-04-07 21:37 14.87837 74.01939 34890 ft 464 kts 117°
2026-04-07 21:37 14.84750 74.07822 34895 ft 464 kts 117°
2026-04-07 21:38 14.81676 74.13676 34899 ft 465 kts 117°
2026-04-07 21:38 14.78602 74.19522 34901 ft 465 kts 117°
2026-04-07 21:39 14.75520 74.25380 34899 ft 463 kts 117°
2026-04-07 21:39 14.72444 74.31221 34894 ft 463 kts 117°
2026-04-07 21:40 14.69360 74.37072 34891 ft 462 kts 117°
2026-04-07 21:40 14.66295 74.42886 34888 ft 462 kts 117°
2026-04-07 21:41 14.63232 74.48689 34891 ft 461 kts 117°
2026-04-07 21:41 14.60158 74.54511 34899 ft 461 kts 117°
2026-04-07 21:42 14.57095 74.60304 34909 ft 462 kts 117°
2026-04-07 21:42 14.53998 74.66156 34918 ft 461 kts 118°
2026-04-07 21:43 14.50938 74.71935 34931 ft 461 kts 118°
2026-04-07 21:43 14.47872 74.77734 34942 ft 460 kts 117°
2026-04-07 21:44 14.44854 74.83579 34946 ft 460 kts 117°
2026-04-07 21:44 14.41872 74.89372 34947 ft 460 kts 117°
2026-04-07 21:45 14.38879 74.95171 34953 ft 459 kts 117°
2026-04-07 21:45 14.35863 75.01002 34959 ft 458 kts 117°
2026-04-07 21:46 14.32871 75.06780 34960 ft 458 kts 117°
2026-04-07 21:46 14.29861 75.12591 34960 ft 458 kts 117°
2026-04-07 21:47 14.26868 75.18366 34956 ft 458 kts 117°
2026-04-07 21:47 14.23877 75.24128 34958 ft 459 kts 117°
2026-04-07 21:48 14.20861 75.29936 34959 ft 458 kts 117°
2026-04-07 21:48 14.17863 75.35708 34958 ft 458 kts 117°
2026-04-07 21:49 14.14865 75.41470 34961 ft 458 kts 117°
2026-04-07 21:49 14.11854 75.47257 34964 ft 457 kts 117°
2026-04-07 21:50 14.08850 75.53024 34969 ft 456 kts 117°
2026-04-07 21:50 14.05846 75.58778 34970 ft 455 kts 117°
2026-04-07 21:51 14.02848 75.64510 34968 ft 455 kts 117°
2026-04-07 21:51 13.99847 75.70240 34967 ft 455 kts 117°
2026-04-07 21:52 13.96846 75.75964 34969 ft 456 kts 117°
2026-04-07 21:52 13.93844 75.81689 34972 ft 455 kts 117°
2026-04-07 21:53 13.90834 75.87422 34977 ft 454 kts 117°
2026-04-07 21:53 13.87843 75.93120 34981 ft 454 kts 117°
2026-04-07 21:54 13.84832 75.98850 34985 ft 454 kts 117°
2026-04-07 21:54 13.81827 76.04559 34996 ft 454 kts 117°
2026-04-07 21:55 13.78822 76.10267 35004 ft 454 kts 117°
2026-04-07 21:55 13.75822 76.15972 35009 ft 454 kts 117°
2026-04-07 21:56 13.72824 76.21666 34800 ft 454 kts 117°
2026-04-07 21:56 13.71320 76.24517 34494 ft 452 kts 117°
2026-04-07 21:56 13.69844 76.27316 34092 ft 450 kts 117°
2026-04-07 21:56 13.68358 76.30132 33607 ft 448 kts 117°
2026-04-07 21:57 13.66875 76.32942 33022 ft 449 kts 117°
2026-04-07 21:57 13.65381 76.35771 32420 ft 449 kts 117°
2026-04-07 21:57 13.63903 76.38573 31810 ft 449 kts 117°
2026-04-07 21:57 13.62401 76.41419 31161 ft 450 kts 117°
2026-04-07 21:58 13.60920 76.44224 30525 ft 450 kts 117°
2026-04-07 21:58 13.59431 76.47041 29944 ft 453 kts 117°
2026-04-07 21:58 13.57908 76.49922 29408 ft 456 kts 117°
2026-04-07 21:58 13.56412 76.52753 29078 ft 455 kts 117°
2026-04-07 21:59 13.54910 76.55589 28744 ft 454 kts 117°
2026-04-07 21:59 13.53388 76.58462 28399 ft 452 kts 117°
2026-04-07 21:59 13.51886 76.61298 28052 ft 450 kts 117°
2026-04-07 21:59 13.50407 76.64088 27708 ft 447 kts 116°
2026-04-07 22:00 13.48912 76.66907 27355 ft 445 kts 117°
2026-04-07 22:00 13.47450 76.69664 27005 ft 443 kts 116°
2026-04-07 22:00 13.45979 76.72440 26643 ft 440 kts 116°
2026-04-07 22:00 13.44525 76.75182 26183 ft 438 kts 116°
2026-04-07 22:01 13.43078 76.77911 25624 ft 435 kts 116°
2026-04-07 22:01 13.41632 76.80634 25037 ft 433 kts 116°
2026-04-07 22:01 13.40202 76.83328 24524 ft 429 kts 115°
2026-04-07 22:01 13.38783 76.85998 24055 ft 424 kts 115°
2026-04-07 22:02 13.37378 76.88644 23605 ft 419 kts 115°
2026-04-07 22:02 13.35988 76.91261 23167 ft 414 kts 115°
2026-04-07 22:02 13.34633 76.93810 22739 ft 409 kts 115°
2026-04-07 22:02 13.33271 76.96369 22305 ft 405 kts 115°
2026-04-07 22:03 13.31939 76.98876 21904 ft 401 kts 114°
2026-04-07 22:03 13.30598 77.01402 21521 ft 397 kts 115°
2026-04-07 22:03 13.27984 77.06317 20810 ft 388 kts 115°
2026-04-07 22:04 13.26697 77.08736 20469 ft 384 kts 115°
2026-04-07 22:04 13.25431 77.11111 20278 ft 373 kts 115°
2026-04-07 22:04 13.24203 77.13409 20229 ft 358 kts 115°
2026-04-07 22:04 13.23035 77.15595 20189 ft 344 kts 115°
2026-04-07 22:05 13.21911 77.17699 20140 ft 330 kts 114°
2026-04-07 22:05 13.20835 77.19717 20074 ft 322 kts 114°
2026-04-07 22:05 13.19758 77.21744 19984 ft 321 kts 114°
2026-04-07 22:05 13.18687 77.23759 19839 ft 320 kts 114°
2026-04-07 22:06 13.17641 77.25766 19626 ft 318 kts 110°
2026-04-07 22:06 13.16900 77.27902 19407 ft 328 kts 99°
2026-04-07 22:06 13.16485 77.30257 19190 ft 342 kts 94°
2026-04-07 22:06 13.16132 77.32700 18989 ft 345 kts 94°
2026-04-07 22:07 13.15789 77.35118 18744 ft 345 kts 94°
2026-04-07 22:07 13.15433 77.37574 18348 ft 345 kts 95°
2026-04-07 22:07 13.15076 77.39983 17995 ft 342 kts 95°
2026-04-07 22:07 13.14710 77.42419 17583 ft 342 kts 95°
2026-04-07 22:08 13.14354 77.44789 17204 ft 340 kts 95°
2026-04-07 22:08 13.13991 77.47189 16841 ft 338 kts 95°
2026-04-07 22:08 13.13632 77.49551 16492 ft 336 kts 95°
2026-04-07 22:08 13.13272 77.51917 16122 ft 334 kts 95°
2026-04-07 22:09 13.12915 77.54271 15764 ft 331 kts 95°
2026-04-07 22:09 13.12560 77.56598 15425 ft 328 kts 96°
2026-04-07 22:09 13.12212 77.58886 15100 ft 326 kts 95°
2026-04-07 22:09 13.11860 77.61184 14776 ft 325 kts 96°
2026-04-07 22:10 13.11512 77.63474 14455 ft 324 kts 96°
2026-04-07 22:10 13.11166 77.65744 14135 ft 322 kts 96°
2026-04-07 22:10 13.10823 77.68016 13817 ft 320 kts 95°
2026-04-07 22:10 13.10647 77.70241 13484 ft 316 kts 89°
2026-04-07 22:11 13.10617 77.72476 13158 ft 313 kts 88°
2026-04-07 22:11 13.10610 77.74704 12830 ft 311 kts 88°
2026-04-07 22:11 13.10606 77.76932 12485 ft 309 kts 88°
2026-04-07 22:11 13.10597 77.79117 12136 ft 308 kts 88°
2026-04-07 22:12 13.10584 77.81304 11778 ft 306 kts 88°
2026-04-07 22:12 13.10569 77.83487 11417 ft 305 kts 89°
2026-04-07 22:12 13.10553 77.85660 11054 ft 304 kts 89°
2026-04-07 22:12 13.10540 77.87809 10708 ft 302 kts 89°
2026-04-07 22:13 13.10526 77.89945 10403 ft 297 kts 89°
2026-04-07 22:13 13.10511 77.92049 10090 ft 293 kts 89°
2026-04-07 22:13 13.10499 77.94120 9759 ft 285 kts 89°
2026-04-07 22:13 13.10515 77.96110 9338 ft 278 kts 83°
2026-04-07 22:14 13.11140 77.97913 8800 ft 270 kts 50°
2026-04-07 22:14 13.12619 77.99005 8339 ft 265 kts 15°
2026-04-07 22:14 13.14450 77.99133 7883 ft 264 kts 353°
2026-04-07 22:14 13.16291 77.98895 7441 ft 262 kts 352°
2026-04-07 22:15 13.18060 77.98688 7226 ft 245 kts 352°
2026-04-07 22:15 13.19597 77.98127 6999 ft 230 kts 319°
2026-04-07 22:15 13.20440 77.96816 7005 ft 220 kts 289°
2026-04-07 22:15 13.20583 77.95309 6924 ft 207 kts 272°
2026-04-07 22:16 13.20559 77.93830 6613 ft 204 kts 272°
2026-04-07 22:16 13.20534 77.92433 6458 ft 191 kts 273°
2026-04-07 22:16 13.20525 77.91125 6345 ft 176 kts 273°
2026-04-07 22:16 13.20526 77.89908 6184 ft 164 kts 274°
2026-04-07 22:17 13.20534 77.88773 5962 ft 159 kts 274°
2026-04-07 22:17 13.20546 77.87628 5761 ft 158 kts 274°
2026-04-07 22:17 13.20557 77.86509 5561 ft 158 kts 274°
2026-04-07 22:17 13.20569 77.85379 5360 ft 157 kts 273°
2026-04-07 22:18 13.20580 77.84257 5162 ft 157 kts 272°
2026-04-07 22:18 13.20590 77.83132 4966 ft 157 kts 272°
2026-04-07 22:18 13.20601 77.82010 4769 ft 157 kts 271°
2026-04-07 22:18 13.20610 77.80905 4574 ft 156 kts 271°
2026-04-07 22:19 13.20620 77.79795 4377 ft 156 kts 271°
2026-04-07 22:19 13.20628 77.78677 4175 ft 155 kts 269°
2026-04-07 22:19 13.20619 77.77583 3962 ft 155 kts 270°
2026-04-07 22:19 13.20647 77.76476 3699 ft 153 kts 270°
2026-04-07 22:20 13.20661 77.75391 3535 ft 153 kts 269°
2026-04-07 22:20 13.20664 77.74294 3322 ft 152 kts 269°
2026-04-07 22:20 13.20671 77.73214 3182 ft 153 kts 269°
2026-04-07 22:20 13.20683 77.72121 3016 ft 152 kts 269°
2026-04-07 22:21 13.20693 77.71116 3005 ft 122 kts 270°
2026-04-07 22:21 13.20698 77.70488 3005 ft 56 kts 271°
2026-04-07 22:21 13.20695 77.70188 3005 ft 29 kts 267°
2026-04-07 22:21 13.20641 77.70023 3005 ft 15 kts 240°
2026-04-07 22:22 13.20603 77.69955 3005 ft 8 kts 231°
2026-04-07 22:22 13.20550 77.69947 3005 ft 8 kts 153°
2026-04-07 22:22 13.20529 77.70002 3005 ft 9 kts 91°
2026-04-07 22:22 13.20528 77.70070 3005 ft 10 kts 90°
2026-04-07 22:23 13.20528 77.70146 3005 ft 11 kts 91°
2026-04-07 22:23 13.20526 77.70233 3005 ft 12 kts 90°
2026-04-07 22:23 13.20527 77.70331 3005 ft 14 kts 90°
2026-04-07 22:23 13.20526 77.70446 3005 ft 17 kts 91°
2026-04-07 22:24 13.20524 77.70570 3005 ft 17 kts 90°
2026-04-07 22:24 13.20524 77.70695 3005 ft 17 kts 90°
2026-04-07 22:24 13.20522 77.70815 3005 ft 16 kts 91°
2026-04-07 22:24 13.20521 77.70935 3005 ft 16 kts 89°
2026-04-07 22:25 13.20521 77.71049 3005 ft 12 kts 90°
2026-04-07 22:25 13.20520 77.71140 3005 ft 13 kts 91°
2026-04-07 22:25 13.20518 77.71236 3005 ft 13 kts 91°
2026-04-07 22:25 13.20517 77.71333 3005 ft 13 kts 91°
2026-04-07 22:26 13.20517 77.71435 3005 ft 14 kts 90°
2026-04-07 22:26 13.20515 77.71545 3005 ft 15 kts 91°
2026-04-07 22:26 13.20514 77.71653 3005 ft 14 kts 89°
2026-04-07 22:26 13.20514 77.71740 3005 ft 10 kts 94°
2026-04-07 22:27 13.20484 77.71789 3005 ft 7 kts 171°
2026-04-07 22:27 13.20432 77.71788 3005 ft 7 kts 182°
2026-04-07 22:27 13.20382 77.71787 3005 ft 7 kts 182°
2026-04-07 22:27 13.20334 77.71787 3005 ft 6 kts 180°
2026-04-07 22:28 13.20285 77.71786 3005 ft 7 kts 181°
2026-04-07 22:28 13.20236 77.71785 3005 ft 7 kts 181°
2026-04-07 22:28 13.20190 77.71773 3005 ft 6 kts 224°
2026-04-07 22:28 13.20163 77.71740 3005 ft 4 kts 211°
2026-04-07 22:29 13.20134 77.71735 3005 ft 4 kts 182°
2026-04-07 22:29 13.20106 77.71735 3005 ft 4 kts 180°
2026-04-07 22:29 13.20080 77.71735 3005 ft 2 kts 180°
2026-04-07 22:29 13.20078 77.71735 3005 ft 0 kts 180°